[[{"header":{"parameterUnit":"m.s-1","parameterCategory":1,"la1":30.2991,"la2":30.254,"lo1":-89.0895,"lo2":-89.0444,"dy":0.0017,"dx":0.0017,"nx":28,"ny":28,"refTime":"2025-11-10T03:00:00:Z","depth":0,"parameterNumber":2,"parameterNumberName":"U-component_of_WINDS"},"data":[0,0,0,0,0,0,0,0,0,0,0,0,0,0,0,0,0,0,0,0,0,0,0,0,0,0,0,0,0,0,0,0,0,0,0,0,0,0,0,0,0,0,0,0,0,0,0,0,0,0,0,0,0,0,0,0,0,0,3.1358,3.1358,0,3.1368,3.1368,3.1368,3.1335,3.1334,3.1333,3.1332,3.1341,3.1342,3.1343,0,0,0,0,0,0,0,0,0,0,0,0,0,3.1312,3.1313,3.1358,3.1358,3.1359,3.1368,3.1368,3.1368,3.1335,3.1334,3.1333,3.1331,3.134,3.1342,3.1343,0,0,0,0,0,0,0,0,0,0,0,0,0,3.1328,3.1314,3.1358,3.1343,3.1342,3.1368,3.1368,3.1368,3.1335,3.1334,3.1332,3.1331,3.134,3.1342,3.1343,3.1384,0,0,3.1349,3.1349,0,0,0,0,0,0,0,0,3.1327,3.133,3.1345,3.1344,3.1343,3.1349,3.1355,3.1373,3.1336,3.1338,3.1332,3.133,3.1344,3.1346,3.1351,3.1384,3.1384,3.1349,3.135,3.135,3.1351,0,0,0,0,0,0,0,3.1326,3.1329,3.1362,3.1346,3.1344,3.1336,3.1337,3.1358,3.1349,3.1337,3.1335,3.1337,3.1344,3.1349,3.1351,3.1385,3.1349,3.135,3.1351,3.1352,3.1453,3.1455,0,0,0,0,0,0,3.1327,3.1328,3.1362,3.1362,3.1331,3.1338,3.1339,3.1348,3.1349,3.1348,3.1338,3.1335,3.1347,3.1349,3.1351,3.1399,3.135,3.1352,3.1353,3.1451,3.1453,3.1455,0,0,0,0,0,0,3.1326,3.133,3.1361,3.1345,3.1348,3.1341,3.1351,3.1349,3.1355,3.1349,3.1348,3.1345,3.1346,3.1348,3.1376,3.1399,3.1353,3.1354,3.1449,3.1452,3.1454,3.1495,0,0,0,0,0,0,3.1325,3.133,3.1345,3.1345,3.1349,3.1386,3.1353,3.1351,3.1358,3.1354,3.1356,3.1355,3.1345,3.1374,3.1378,3.14,3.1356,3.1447,3.1451,3.1454,3.1491,3.1498,3.1504,0,0,0,0,0,3.1323,3.1356,3.1346,3.135,3.1368,3.1388,3.139,3.1378,3.136,3.1375,3.1372,3.1354,3.1396,3.1377,3.1381,3.1404,3.1446,3.145,3.1453,3.1488,3.1497,3.1504,0,0,0,0,0,0,3.1357,3.1355,3.1345,3.1378,3.1383,3.1382,3.1401,3.1387,3.1398,3.1394,3.1379,3.138,3.141,3.141,3.1389,3.1444,3.1418,3.1422,3.1443,3.1451,3.1457,3.1456,3.1357,0,0,0,0,0,3.1369,3.1385,3.1383,3.1412,3.1416,3.1408,3.1416,3.1407,3.1412,3.1414,3.1413,3.1418,3.1432,3.1442,3.1454,3.1492,3.1492,3.151,3.1516,3.1522,3.1526,3.1546,3.1555,3.1467,3.1467,3.1467,0,0,3.1392,3.1393,3.1404,3.1419,3.1422,3.144,3.141,3.1429,3.1442,3.1417,3.1443,3.1443,3.1447,3.1481,3.1495,3.1481,3.155,3.1526,3.1531,3.1532,3.1551,3.1559,3.1567,3.147,3.1469,3.1469,0,0,3.1444,3.1447,3.1472,3.1476,3.1482,3.1477,3.1483,3.1485,3.1483,3.151,3.1491,3.1507,3.1531,3.1536,3.1541,3.1598,3.1582,3.1603,3.1636,3.1656,3.1663,3.1669,3.1689,3.1697,3.1607,3.1607,3.1607,0,3.1472,3.1498,3.1487,3.1508,3.1515,3.1494,3.152,3.1525,3.1534,3.154,3.1525,3.1556,3.1558,3.1592,3.1606,3.1611,3.1618,3.1602,3.1663,3.1669,3.1674,3.1693,3.1701,3.1609,3.1609,3.1609,3.1608,0,3.1533,3.1552,3.1572,3.1582,3.1592,3.1615,3.1608,3.1619,3.161,3.1607,3.1634,3.1636,3.1649,3.1657,3.1648,3.1691,3.1682,3.1665,3.1638,3.1685,3.1703,3.171,3.1613,3.1612,3.1611,3.1611,0,0,3.1604,3.161,3.1617,3.1623,3.1628,3.1642,3.1666,3.1679,3.169,3.1697,3.1716,3.1739,3.1724,3.1731,3.1722,3.174,3.1785,3.1721,3.1721,3.1733,3.1833,3.1845,3.1854,3.1776,3.1777,3.1778,3.1832,0,3.1655,3.1695,3.1687,3.1726,3.1743,3.1724,3.1745,3.1751,3.1749,3.1764,3.1762,3.1778,3.1757,3.1761,3.1778,3.1776,3.1805,3.1772,3.1793,3.1794,3.1792,3.1863,3.1875,3.1927,3.1839,3.184,3.1841,0,3.172,3.1731,3.1772,3.1777,3.1784,3.1802,3.1815,3.1829,3.1836,3.1834,3.1842,3.183,3.1854,3.1828,3.186,3.1838,3.1846,3.1847,3.1849,3.1849,3.182,3.1865,3.1943,3.195,3.1852,3.1851,3.185,0,3.1768,3.1794,3.1822,3.1827,3.1833,3.1846,3.1849,3.1855,3.1864,3.1875,3.1881,3.1895,3.1902,3.1914,3.1906,3.1888,3.194,3.1913,3.1939,3.1939,3.1949,3.1949,3.2029,3.1956,3.1956,3.1956,3.1956,0,3.1825,3.1851,3.1844,3.1861,3.189,3.188,3.1909,3.191,3.1916,3.1933,3.1918,3.1935,3.1924,3.194,3.1935,3.1963,3.1966,3.1965,3.1963,3.1966,3.1966,3.197,3.1966,3.1958,3.1957,3.1957,3.1957,0,3.1883,3.1879,3.1909,3.1913,3.1914,3.1936,3.1939,3.1955,3.1953,3.1976,3.198,3.1977,3.1995,3.199,3.2009,3.2005,3.2041,3.2035,3.2039,3.2037,3.2063,3.206,3.2148,3.2159,3.208,3.208,3.2081,0,3.1919,3.1939,3.1946,3.1957,3.1961,3.1979,3.1989,3.1981,3.1992,3.2002,3.2018,3.2035,3.2048,3.2078,3.2077,3.2092,3.2086,3.2116,3.2088,3.2091,3.2086,3.2085,3.2087,3.2121,3.2122,3.2123,3.2123,0,3.1985,3.1983,3.1998,3.2013,3.2025,3.2037,3.2046,3.2056,3.2049,3.2062,3.2081,3.2091,3.2112,3.2129,3.2144,3.2147,3.2134,3.2133,3.2139,3.2142,3.2143,3.2143,3.2053,3.213,3.2129,3.2129,3.2129,3.2128,3.2033,3.205,3.2058,3.2076,3.2083,3.2093,3.2109,3.211,3.2125,3.2142,3.2136,3.2158,3.2166,3.2184,3.2189,3.2206,3.2195,3.2204,3.2207,3.2209,3.2212,3.2142,3.2209,3.2208,3.2208,3.2208,3.2208,0,3.2097,3.2102,3.2119,3.2134,3.2148,3.2136,3.2147,3.216,3.2179,3.2188,3.2202,3.2224,3.2241,3.2243,3.2259,3.2273,3.2267,3.2277,3.2276,3.2277,3.2222,3.2214,3.2281,3.2281,3.2281,3.2281,3.2281,3.2281,3.2133,3.2161,3.216,3.2193,3.2197,3.2219,3.2226,3.2236,3.2243,3.2269,3.2283,3.2284,3.229,3.2307,3.2323,3.2323,3.2329,3.2341,3.2339,3.2288,3.228,3.2273,3.2266,3.2343,3.2343,3.2393,3.2393,3.2394]},{"header":{"parameterUnit":"m.s-1","parameterCategory":1,"la1":30.2991,"la2":30.254,"lo1":-89.0895,"lo2":-89.0444,"dy":0.0017,"dx":0.0017,"nx":28,"ny":28,"refTime":"2025-11-10T03:00:00:Z","depth":0,"parameterNumber":3,"parameterNumberName":"V-component_of_WINDS"},"data":[0,0,0,0,0,0,0,0,0,0,0,0,0,0,0,0,0,0,0,0,0,0,0,0,0,0,0,0,0,0,0,0,0,0,0,0,0,0,0,0,0,0,0,0,0,0,0,0,0,0,0,0,0,0,0,0,0,0,-7.0592,-7.0593,0,-7.0717,-7.0719,-7.072,-7.0685,-7.0683,-7.068,-7.0678,-7.0801,-7.0806,-7.0812,0,0,0,0,0,0,0,0,0,0,0,0,0,-7.0319,-7.0324,-7.0592,-7.0593,-7.0595,-7.0717,-7.0719,-7.072,-7.0686,-7.0683,-7.068,-7.0677,-7.0799,-7.0805,-7.0812,0,0,0,0,0,0,0,0,0,0,0,0,0,-7.044,-7.0326,-7.0592,-7.0593,-7.0594,-7.0717,-7.0719,-7.0721,-7.0686,-7.0683,-7.0679,-7.0675,-7.0796,-7.0805,-7.0813,-7.0941,0,0,-7.0839,-7.0842,0,0,0,0,0,0,0,0,-7.0433,-7.045,-7.0591,-7.0593,-7.0594,-7.0682,-7.0667,-7.0794,-7.0687,-7.0651,-7.0678,-7.0673,-7.0764,-7.0775,-7.0806,-7.0946,-7.0952,-7.0839,-7.0845,-7.0848,-7.0851,0,0,0,0,0,0,0,-7.0425,-7.0444,-7.0641,-7.0593,-7.0595,-7.0586,-7.0599,-7.0691,-7.0727,-7.0654,-7.0652,-7.0667,-7.0764,-7.0798,-7.0809,-7.0954,-7.0839,-7.0847,-7.0852,-7.0855,-7.1207,-7.1211,0,0,0,0,0,0,-7.0416,-7.0438,-7.0637,-7.0645,-7.0503,-7.0594,-7.0608,-7.0658,-7.0726,-7.0733,-7.067,-7.0665,-7.0786,-7.0799,-7.0813,-7.0969,-7.0848,-7.0856,-7.0861,-7.1203,-7.1208,-7.1212,0,0,0,0,0,0,-7.041,-7.0434,-7.0632,-7.0541,-7.0566,-7.0602,-7.0658,-7.0662,-7.0696,-7.0738,-7.0744,-7.0699,-7.0783,-7.0801,-7.091,-7.0972,-7.086,-7.0867,-7.1198,-7.1204,-7.121,-7.128,0,0,0,0,0,0,-7.0402,-7.0432,-7.0482,-7.0542,-7.0571,-7.0729,-7.0662,-7.0667,-7.0712,-7.0706,-7.0767,-7.0773,-7.0782,-7.0898,-7.0919,-7.0982,-7.0874,-7.1192,-7.1201,-7.1208,-7.1272,-7.1288,-7.1302,0,0,0,0,0,-7.0393,-7.0495,-7.0484,-7.0509,-7.0634,-7.0732,-7.0748,-7.0757,-7.0717,-7.0767,-7.0794,-7.0771,-7.0962,-7.0909,-7.0932,-7.0999,-7.1188,-7.1198,-7.1208,-7.1266,-7.1285,-7.1301,0,0,0,0,0,0,-7.0438,-7.0503,-7.0492,-7.0617,-7.067,-7.0726,-7.0789,-7.0777,-7.0841,-7.0833,-7.084,-7.0854,-7.0966,-7.0993,-7.0933,-7.1127,-7.1069,-7.1084,-7.1106,-7.1124,-7.1139,-7.113,-7.0881,0,0,0,0,0,-7.0463,-7.0539,-7.0591,-7.0696,-7.0723,-7.0752,-7.0795,-7.0798,-7.0852,-7.0874,-7.0909,-7.0961,-7.1033,-7.108,-7.1148,-7.1276,-7.1289,-7.1334,-7.1348,-7.136,-7.1373,-7.1444,-7.1465,-7.1244,-7.1244,-7.1244,0,0,-7.0514,-7.0559,-7.0606,-7.0706,-7.0747,-7.0825,-7.0771,-7.0855,-7.0913,-7.0886,-7.0992,-7.102,-7.1078,-7.1198,-7.1252,-7.1224,-7.1437,-7.1372,-7.1381,-7.1388,-7.1456,-7.1477,-7.1496,-7.1251,-7.125,-7.1248,0,0,-7.0648,-7.0689,-7.0782,-7.0826,-7.089,-7.0909,-7.0931,-7.0991,-7.1009,-7.1116,-7.1099,-7.1166,-7.129,-7.1333,-7.1371,-7.1524,-7.1506,-7.1546,-7.1622,-7.1692,-7.1709,-7.1725,-7.178,-7.18,-7.1558,-7.1559,-7.1559,0,-7.0703,-7.0821,-7.0831,-7.0918,-7.0963,-7.0945,-7.104,-7.108,-7.1163,-7.1194,-7.1162,-7.1318,-7.1356,-7.1487,-7.1524,-7.1555,-7.1581,-7.1539,-7.1706,-7.1722,-7.1736,-7.179,-7.181,-7.1563,-7.1563,-7.1562,-7.1562,0,-7.0886,-7.0969,-7.1036,-7.112,-7.1172,-7.1262,-7.1285,-7.1337,-7.1336,-7.1358,-7.1468,-7.1513,-7.1591,-7.1622,-7.162,-7.1753,-7.1734,-7.1704,-7.1646,-7.1762,-7.1812,-7.1832,-7.157,-7.1568,-7.1567,-7.1565,0,0,-7.105,-7.1141,-7.1165,-7.1204,-7.1275,-7.1338,-7.1427,-7.1506,-7.1551,-7.1609,-7.1684,-7.179,-7.1764,-7.1807,-7.181,-7.1872,-7.1992,-7.1834,-7.1836,-7.1863,-7.2142,-7.2165,-7.2189,-7.198,-7.1984,-7.1987,-7.2138,0,-7.1191,-7.1351,-7.1364,-7.1508,-7.1584,-7.157,-7.1648,-7.1699,-7.1723,-7.179,-7.1815,-7.1891,-7.185,-7.1877,-7.1936,-7.1965,-7.2048,-7.1954,-7.205,-7.2053,-7.2037,-7.2215,-7.2238,-7.2378,-7.2157,-7.2161,-7.2163,0,-7.1376,-7.1443,-7.1595,-7.1658,-7.169,-7.1761,-7.1835,-7.19,-7.1958,-7.1971,-7.2022,-7.2017,-7.2109,-7.2047,-7.2174,-7.2109,-7.2149,-7.2169,-7.2175,-7.2185,-7.2115,-7.223,-7.2423,-7.2444,-7.2194,-7.2191,-7.2189,0,-7.1483,-7.161,-7.1718,-7.1752,-7.1827,-7.1877,-7.191,-7.1965,-7.2012,-7.2077,-7.2108,-7.2181,-7.2221,-7.2278,-7.2293,-7.2247,-7.242,-7.2359,-7.2433,-7.2433,-7.247,-7.2467,-7.2673,-7.2495,-7.2494,-7.2494,-7.2493,0,-7.1639,-7.1733,-7.1768,-7.1834,-7.1939,-7.1953,-7.2056,-7.2086,-7.2135,-7.2207,-7.2197,-7.2264,-7.228,-7.235,-7.2363,-7.2466,-7.2484,-7.2497,-7.2499,-7.2498,-7.2497,-7.2525,-7.2516,-7.25,-7.2498,-7.2497,-7.2496,0,-7.1775,-7.1802,-7.1919,-7.1982,-7.2,-7.2075,-7.2128,-7.2192,-7.2215,-7.2305,-7.2327,-7.2363,-7.2445,-7.2467,-7.2564,-7.2572,-7.2695,-7.2687,-7.2676,-7.2676,-7.2749,-7.2742,-7.298,-7.3012,-7.2812,-7.2814,-7.2816,0,-7.1873,-7.1946,-7.2017,-7.2066,-7.2102,-7.218,-7.2229,-7.2246,-7.2297,-7.2371,-7.2426,-7.2507,-7.2573,-7.2705,-7.2739,-7.2814,-7.2809,-7.2887,-7.2819,-7.2817,-7.2811,-7.2807,-7.2815,-7.29,-7.2902,-7.2903,-7.2905,0,-7.2045,-7.2056,-7.2128,-7.2207,-7.2267,-7.2328,-7.2387,-7.2427,-7.2451,-7.251,-7.2595,-7.2647,-7.2748,-7.283,-7.2906,-7.2938,-7.2926,-7.2926,-7.2947,-7.2947,-7.2938,-7.2946,-7.2712,-7.292,-7.2919,-7.2918,-7.2917,-7.2916,-7.2166,-7.2231,-7.2292,-7.2374,-7.2421,-7.2477,-7.2541,-7.2573,-7.2646,-7.2731,-7.2736,-7.2829,-7.2886,-7.2988,-7.3025,-7.3097,-7.3073,-7.3104,-7.3112,-7.3119,-7.3126,-7.2927,-7.3111,-7.311,-7.311,-7.311,-7.3109,0,-7.2339,-7.2378,-7.2454,-7.2538,-7.2603,-7.2588,-7.2653,-7.2707,-7.279,-7.2846,-7.2913,-7.3012,-7.3091,-7.3132,-7.3211,-7.3261,-7.3257,-7.3281,-7.3278,-7.3286,-7.3142,-7.3117,-7.3283,-7.3283,-7.3283,-7.3283,-7.3283,-7.3283,-7.2436,-7.2546,-7.2564,-7.2697,-7.2735,-7.2828,-7.2867,-7.2918,-7.2963,-7.3075,-7.3142,-7.3169,-7.3219,-7.3302,-7.3374,-7.3384,-7.3414,-7.3441,-7.3448,-7.3313,-7.3295,-7.3279,-7.3255,-7.3447,-7.3447,-7.3585,-7.3587,-7.3588]}]]